User: anonymous   Login
Location: Bouchavesnes-Bergen
(49.9859°N, 2.9203°E)
Time: 15:56:20
(UTC+00:00)
Language:

CZ-4C R/B - Orbit

View from above orbital plane
View from above orbital plane
View from above satellite
View from above satellite

Ground track
Ground track

The orbit data is extracted from the following two-line orbital elements,

1 36416U 10009D   21125.19054818 -.00000076  00000-0  15792-4 0  9999
2 36416  63.4222  55.7104 0526636 355.5639   4.0823 13.69593021558405
Epoch (UTC): 05 May 2021 04:34:23
Eccentricity: 0.0526636
inclination: 63.4222°
perigee height: 612 km
apogee height: 1389 km
right ascension of ascending node: 55.7104°
argument of perigee: 355.5639°
revolutions per day: 13.69593021
mean anomaly at epoch: 4.0823°
orbit number at epoch: 55840

The dashed part of the orbit path shows where the satellite is in the earth's shadow,  

DLR